[[{"header":{"parameterUnit":"m.s-1","parameterCategory":1,"la1":30.2991,"la2":30.254,"lo1":-89.0895,"lo2":-89.0444,"dy":0.0017,"dx":0.0017,"nx":28,"ny":28,"refTime":"2024-03-09T09:00:00:Z","depth":0,"parameterNumber":2,"parameterNumberName":"U-component_of_WINDS"},"data":[0,0,0,0,0,0,0,0,0,0,0,0,0,0,0,0,0,0,0,0,0,0,0,0,0,0,0,0,0,0,0,0,0,0,0,0,0,0,0,0,0,0,0,0,0,0,0,0,0,0,0,0,0,0,0,0,0,0,-1.0312,-1.0312,0,-1.0385,-1.0385,-1.0386,-1.035,-1.0348,-1.0346,-1.0344,-1.0424,-1.0427,-1.0431,0,0,0,0,0,0,0,0,0,0,0,0,0,-1.0145,-1.0148,-1.0312,-1.0312,-1.0313,-1.0385,-1.0386,-1.0387,-1.035,-1.0348,-1.0346,-1.0344,-1.0422,-1.0427,-1.0432,0,0,0,0,0,0,0,0,0,0,0,0,0,-1.0217,-1.0149,-1.0311,-1.0304,-1.0304,-1.0384,-1.0386,-1.0387,-1.0351,-1.0348,-1.0345,-1.0342,-1.0421,-1.0426,-1.0432,-1.0526,0,0,-1.045,-1.0453,0,0,0,0,0,0,0,0,-1.0213,-1.0224,-1.0304,-1.0304,-1.0305,-1.0355,-1.0356,-1.0434,-1.0352,-1.0333,-1.0344,-1.0341,-1.0403,-1.041,-1.0431,-1.0529,-1.0533,-1.0451,-1.0454,-1.0457,-1.0458,0,0,0,0,0,0,0,-1.0208,-1.022,-1.0341,-1.0305,-1.0306,-1.0298,-1.0305,-1.037,-1.0384,-1.0335,-1.0332,-1.0341,-1.0403,-1.0425,-1.0432,-1.0534,-1.045,-1.0456,-1.0459,-1.0461,-1.0714,-1.0717,0,0,0,0,0,0,-1.0203,-1.0216,-1.0338,-1.0343,-1.0251,-1.0303,-1.0311,-1.0342,-1.0383,-1.0386,-1.0343,-1.0339,-1.0417,-1.0425,-1.0435,-1.0548,-1.0457,-1.0462,-1.0465,-1.0711,-1.0715,-1.0719,0,0,0,0,0,0,-1.02,-1.0214,-1.0335,-1.0279,-1.0294,-1.0309,-1.0344,-1.0345,-1.0367,-1.0389,-1.0392,-1.0363,-1.0415,-1.0427,-1.0503,-1.0551,-1.0465,-1.047,-1.0707,-1.0712,-1.0717,-1.0776,0,0,0,0,0,0,-1.0195,-1.0213,-1.0248,-1.028,-1.0297,-1.0402,-1.0347,-1.0348,-1.0377,-1.0372,-1.0409,-1.0412,-1.0413,-1.0495,-1.0509,-1.0557,-1.0474,-1.0703,-1.071,-1.0715,-1.077,-1.0782,-1.0792,0,0,0,0,0,-1.0189,-1.0262,-1.025,-1.0265,-1.0341,-1.0404,-1.0414,-1.0413,-1.038,-1.0416,-1.0431,-1.0411,-1.0542,-1.0503,-1.0519,-1.0569,-1.07,-1.0708,-1.0715,-1.0765,-1.0779,-1.0792,0,0,0,0,0,0,-1.0238,-1.0266,-1.0253,-1.0339,-1.0369,-1.0398,-1.0444,-1.0429,-1.047,-1.0464,-1.0461,-1.047,-1.055,-1.0567,-1.0522,-1.0662,-1.0617,-1.0627,-1.0649,-1.0663,-1.0675,-1.067,-1.0479,0,0,0,0,0,-1.0258,-1.0306,-1.0329,-1.0402,-1.0418,-1.0428,-1.0456,-1.0452,-1.0484,-1.0497,-1.0517,-1.0551,-1.0599,-1.0632,-1.0678,-1.0771,-1.078,-1.0813,-1.0825,-1.0834,-1.0844,-1.0896,-1.0912,-1.0742,-1.0742,-1.0742,0,0,-1.0301,-1.0323,-1.0354,-1.0413,-1.0436,-1.0487,-1.044,-1.0496,-1.0535,-1.0506,-1.058,-1.0596,-1.0633,-1.0718,-1.0757,-1.0735,-1.0892,-1.0843,-1.085,-1.0856,-1.0905,-1.0921,-1.0936,-1.0747,-1.0746,-1.0746,0,0,-1.0406,-1.0426,-1.049,-1.0514,-1.055,-1.0556,-1.0571,-1.0602,-1.0611,-1.0685,-1.0665,-1.0711,-1.0795,-1.0823,-1.0847,-1.0962,-1.0947,-1.0977,-1.1038,-1.1089,-1.1102,-1.1114,-1.1157,-1.1172,-1.0987,-1.0987,-1.0987,0,-1.0456,-1.0532,-1.0526,-1.0584,-1.0611,-1.0586,-1.0652,-1.0675,-1.0725,-1.0745,-1.0718,-1.0823,-1.0846,-1.0939,-1.0967,-1.0987,-1.1006,-1.0974,-1.11,-1.1112,-1.1123,-1.1164,-1.118,-1.0991,-1.099,-1.099,-1.099,0,-1.0592,-1.0645,-1.0692,-1.0739,-1.0771,-1.0833,-1.0838,-1.0871,-1.0864,-1.0873,-1.0949,-1.0975,-1.1027,-1.1048,-1.1042,-1.114,-1.1125,-1.11,-1.1054,-1.1143,-1.1182,-1.1197,-1.0996,-1.0995,-1.0994,-1.0993,0,0,-1.0732,-1.0774,-1.0792,-1.0813,-1.0849,-1.0891,-1.0951,-1.1,-1.103,-1.1064,-1.1117,-1.1188,-1.1164,-1.1192,-1.1189,-1.1233,-1.1325,-1.1202,-1.1203,-1.1226,-1.1437,-1.1457,-1.1476,-1.1313,-1.1316,-1.1318,-1.1434,0,-1.0842,-1.0947,-1.0943,-1.1042,-1.1091,-1.1068,-1.1121,-1.115,-1.116,-1.1204,-1.1215,-1.1267,-1.1231,-1.1248,-1.129,-1.1305,-1.1368,-1.1296,-1.1364,-1.1367,-1.1358,-1.1495,-1.1518,-1.1626,-1.1449,-1.1452,-1.1453,0,-1.0984,-1.1022,-1.1126,-1.1155,-1.1176,-1.1224,-1.1269,-1.131,-1.1343,-1.1347,-1.1379,-1.1368,-1.1431,-1.1382,-1.1469,-1.1421,-1.1448,-1.1459,-1.1464,-1.1472,-1.1417,-1.151,-1.166,-1.1677,-1.1477,-1.1475,-1.1473,0,-1.1079,-1.1156,-1.1228,-1.1246,-1.1282,-1.1317,-1.1333,-1.1363,-1.1393,-1.1432,-1.1452,-1.1498,-1.1524,-1.1561,-1.1564,-1.1527,-1.1653,-1.1604,-1.166,-1.1661,-1.169,-1.1689,-1.1849,-1.1704,-1.1703,-1.1703,-1.1703,0,-1.1203,-1.1268,-1.1271,-1.1316,-1.1388,-1.1383,-1.1455,-1.1469,-1.1495,-1.1543,-1.1525,-1.1571,-1.157,-1.1617,-1.162,-1.1693,-1.1705,-1.1711,-1.1712,-1.1714,-1.1714,-1.1734,-1.1728,-1.1707,-1.1707,-1.1706,-1.1705,0,-1.1322,-1.1326,-1.1404,-1.1431,-1.1439,-1.1491,-1.1515,-1.1558,-1.1566,-1.1627,-1.1641,-1.1653,-1.1708,-1.1713,-1.1777,-1.1778,-1.1868,-1.1859,-1.1857,-1.1856,-1.1914,-1.1909,-1.2095,-1.212,-1.1956,-1.1957,-1.1958,0,-1.1403,-1.1452,-1.1484,-1.1514,-1.1532,-1.1581,-1.1611,-1.1608,-1.164,-1.1681,-1.172,-1.1772,-1.1813,-1.1901,-1.1917,-1.1966,-1.1959,-1.2021,-1.1967,-1.1968,-1.1963,-1.1961,-1.1967,-1.2033,-1.2034,-1.2036,-1.2037,0,-1.1546,-1.1545,-1.1588,-1.1633,-1.1669,-1.1704,-1.1736,-1.1762,-1.1763,-1.1801,-1.1855,-1.1888,-1.1952,-1.2004,-1.2052,-1.207,-1.2055,-1.2053,-1.207,-1.2075,-1.2072,-1.2076,-1.1888,-1.205,-1.2049,-1.2048,-1.2047,-1.2047,-1.165,-1.1693,-1.1722,-1.1771,-1.1795,-1.1826,-1.1868,-1.188,-1.1925,-1.1976,-1.1971,-1.2033,-1.2064,-1.2126,-1.2148,-1.2197,-1.2176,-1.2199,-1.2206,-1.2212,-1.2219,-1.2062,-1.2205,-1.2205,-1.2204,-1.2204,-1.2204,0,-1.1794,-1.1811,-1.1856,-1.1902,-1.1941,-1.192,-1.1955,-1.199,-1.2043,-1.2073,-1.2114,-1.2177,-1.2228,-1.2247,-1.2297,-1.2332,-1.2327,-1.2346,-1.2345,-1.235,-1.2233,-1.2215,-1.235,-1.235,-1.235,-1.235,-1.235,-1.235,-1.1874,-1.1946,-1.1949,-1.2033,-1.205,-1.2109,-1.2131,-1.216,-1.2184,-1.2255,-1.2296,-1.2308,-1.2334,-1.2385,-1.2432,-1.2436,-1.2456,-1.2479,-1.2481,-1.2372,-1.2358,-1.2344,-1.2327,-1.2483,-1.2483,-1.2594,-1.2595,-1.2596]},{"header":{"parameterUnit":"m.s-1","parameterCategory":1,"la1":30.2991,"la2":30.254,"lo1":-89.0895,"lo2":-89.0444,"dy":0.0017,"dx":0.0017,"nx":28,"ny":28,"refTime":"2024-03-09T09:00:00:Z","depth":0,"parameterNumber":3,"parameterNumberName":"V-component_of_WINDS"},"data":[0,0,0,0,0,0,0,0,0,0,0,0,0,0,0,0,0,0,0,0,0,0,0,0,0,0,0,0,0,0,0,0,0,0,0,0,0,0,0,0,0,0,0,0,0,0,0,0,0,0,0,0,0,0,0,0,0,0,-4.5854,-4.5855,0,-4.5977,-4.5978,-4.598,-4.5913,-4.591,-4.5907,-4.5904,-4.6029,-4.6035,-4.6042,0,0,0,0,0,0,0,0,0,0,0,0,0,-4.5562,-4.5567,-4.5854,-4.5855,-4.5857,-4.5977,-4.5978,-4.598,-4.5914,-4.591,-4.5906,-4.5902,-4.6027,-4.6034,-4.6042,0,0,0,0,0,0,0,0,0,0,0,0,0,-4.5687,-4.5569,-4.5854,-4.5839,-4.5838,-4.5976,-4.5978,-4.598,-4.5915,-4.591,-4.5905,-4.59,-4.6024,-4.6034,-4.6043,-4.6203,0,0,-4.6073,-4.6077,0,0,0,0,0,0,0,0,-4.568,-4.5698,-4.5839,-4.584,-4.584,-4.5925,-4.5921,-4.6055,-4.5916,-4.5886,-4.5903,-4.5898,-4.5998,-4.601,-4.6044,-4.6209,-4.6214,-4.6074,-4.6079,-4.6084,-4.6086,0,0,0,0,0,0,0,-4.5671,-4.5692,-4.5902,-4.5841,-4.5842,-4.5825,-4.5838,-4.5946,-4.5969,-4.5888,-4.5884,-4.5899,-4.5997,-4.6035,-4.6046,-4.6216,-4.6073,-4.6082,-4.6088,-4.6092,-4.6518,-4.6523,0,0,0,0,0,0,-4.5664,-4.5685,-4.5899,-4.5906,-4.5746,-4.5835,-4.5848,-4.5903,-4.5967,-4.5972,-4.5903,-4.5895,-4.6021,-4.6035,-4.605,-4.6242,-4.6083,-4.6093,-4.6098,-4.6513,-4.6519,-4.6525,0,0,0,0,0,0,-4.5658,-4.5683,-4.5894,-4.5795,-4.582,-4.5845,-4.5906,-4.5908,-4.5945,-4.5979,-4.5982,-4.5937,-4.6017,-4.6037,-4.6166,-4.6246,-4.6097,-4.6106,-4.6506,-4.6515,-4.6522,-4.6627,0,0,0,0,0,0,-4.565,-4.5682,-4.5743,-4.5797,-4.5826,-4.6008,-4.5911,-4.5914,-4.5962,-4.5953,-4.6011,-4.6016,-4.6015,-4.6151,-4.6175,-4.6256,-4.6113,-4.6499,-4.651,-4.652,-4.6616,-4.6638,-4.6656,0,0,0,0,0,-4.5639,-4.5767,-4.5746,-4.5772,-4.5903,-4.6012,-4.6029,-4.6025,-4.5968,-4.603,-4.6052,-4.6014,-4.6233,-4.6165,-4.6191,-4.6277,-4.6494,-4.6507,-4.6519,-4.6608,-4.6634,-4.6656,0,0,0,0,0,0,-4.5722,-4.5774,-4.5751,-4.59,-4.5953,-4.6001,-4.6079,-4.6052,-4.6121,-4.611,-4.6101,-4.6115,-4.625,-4.6275,-4.6199,-4.6434,-4.6354,-4.6373,-4.6413,-4.6438,-4.6457,-4.6449,-4.6121,0,0,0,0,0,-4.5758,-4.5843,-4.5883,-4.6011,-4.6038,-4.6054,-4.6101,-4.6094,-4.6147,-4.6169,-4.62,-4.6253,-4.6333,-4.6387,-4.6463,-4.6619,-4.6631,-4.669,-4.671,-4.6726,-4.6743,-4.6828,-4.6855,-4.6566,-4.6566,-4.6566,0,0,-4.5833,-4.5871,-4.5925,-4.6028,-4.6068,-4.6156,-4.6073,-4.6169,-4.6235,-4.6183,-4.6307,-4.6332,-4.639,-4.6534,-4.6599,-4.656,-4.6825,-4.6742,-4.6755,-4.6763,-4.6843,-4.6871,-4.6895,-4.6575,-4.6573,-4.6572,0,0,-4.6014,-4.6051,-4.6162,-4.6203,-4.6264,-4.6273,-4.63,-4.6353,-4.6367,-4.6491,-4.6455,-4.6531,-4.667,-4.6714,-4.6754,-4.6951,-4.692,-4.6976,-4.708,-4.7163,-4.7185,-4.7206,-4.7277,-4.7302,-4.6991,-4.6992,-4.6992,0,-4.6099,-4.623,-4.6222,-4.6322,-4.6368,-4.6326,-4.6438,-4.6478,-4.656,-4.6593,-4.6548,-4.6722,-4.6758,-4.6911,-4.6959,-4.6993,-4.7023,-4.697,-4.7183,-4.7203,-4.7222,-4.7289,-4.7316,-4.6998,-4.6998,-4.6997,-4.6996,0,-4.6332,-4.6424,-4.6506,-4.6587,-4.6642,-4.6748,-4.6756,-4.6813,-4.68,-4.6814,-4.6941,-4.6983,-4.7067,-4.7102,-4.709,-4.7254,-4.7228,-4.7183,-4.7103,-4.7256,-4.7319,-4.7345,-4.7008,-4.7005,-4.7003,-4.7002,0,0,-4.6571,-4.6646,-4.6676,-4.6712,-4.6776,-4.6846,-4.6949,-4.7031,-4.7081,-4.7139,-4.7225,-4.7343,-4.7302,-4.7348,-4.734,-4.7413,-4.7567,-4.7359,-4.736,-4.7397,-4.7751,-4.7786,-4.7816,-4.7546,-4.7551,-4.7555,-4.7747,0,-4.6757,-4.6939,-4.6934,-4.7102,-4.7187,-4.7147,-4.7237,-4.7285,-4.7301,-4.7375,-4.7392,-4.7476,-4.7415,-4.7442,-4.7512,-4.7534,-4.7638,-4.752,-4.7627,-4.7631,-4.7615,-4.7849,-4.7886,-4.8065,-4.7771,-4.7776,-4.7779,0,-4.7,-4.7066,-4.7243,-4.7294,-4.7329,-4.741,-4.7485,-4.7556,-4.761,-4.7616,-4.7667,-4.7648,-4.7752,-4.7668,-4.7812,-4.7731,-4.7774,-4.7791,-4.7798,-4.7809,-4.7715,-4.7868,-4.8122,-4.815,-4.7817,-4.7814,-4.7812,0,-4.7158,-4.7291,-4.7414,-4.7446,-4.7508,-4.7566,-4.7595,-4.7644,-4.7693,-4.7758,-4.779,-4.7867,-4.7909,-4.7968,-4.797,-4.7908,-4.8115,-4.8031,-4.8124,-4.8124,-4.8171,-4.8168,-4.8437,-4.8196,-4.8196,-4.8196,-4.8195,0,-4.7367,-4.7478,-4.7486,-4.7562,-4.7684,-4.7677,-4.7798,-4.7821,-4.7865,-4.7944,-4.7913,-4.7989,-4.7985,-4.8062,-4.8063,-4.8183,-4.8201,-4.821,-4.8209,-4.8214,-4.8213,-4.8243,-4.8231,-4.8203,-4.8201,-4.82,-4.8198,0,-4.7565,-4.7575,-4.7707,-4.7755,-4.7769,-4.7858,-4.7898,-4.797,-4.7983,-4.8084,-4.8107,-4.8127,-4.8215,-4.8222,-4.8324,-4.8325,-4.847,-4.8455,-4.8452,-4.845,-4.8543,-4.8535,-4.8843,-4.8883,-4.8614,-4.8617,-4.8619,0,-4.7699,-4.7783,-4.784,-4.7891,-4.7923,-4.8006,-4.8056,-4.8052,-4.8106,-4.8173,-4.8238,-4.8323,-4.8391,-4.8533,-4.8557,-4.8634,-4.8622,-4.8724,-4.8633,-4.8635,-4.8625,-4.8621,-4.8629,-4.8742,-4.8745,-4.8748,-4.875,0,-4.7937,-4.7937,-4.8012,-4.8088,-4.8149,-4.8209,-4.8264,-4.8308,-4.831,-4.8372,-4.8462,-4.8515,-4.8619,-4.8704,-4.878,-4.8808,-4.8781,-4.8778,-4.8804,-4.881,-4.8806,-4.8811,-4.8502,-4.8771,-4.8769,-4.8768,-4.8766,-4.8766,-4.8108,-4.8181,-4.8232,-4.8316,-4.8357,-4.841,-4.848,-4.8501,-4.8576,-4.8661,-4.8653,-4.8753,-4.8804,-4.8903,-4.8938,-4.9015,-4.8981,-4.9018,-4.9028,-4.9037,-4.9048,-4.8792,-4.9029,-4.9028,-4.9028,-4.9027,-4.9027,0,-4.8345,-4.8376,-4.8453,-4.8532,-4.8597,-4.8564,-4.8624,-4.8681,-4.877,-4.8819,-4.8887,-4.899,-4.9072,-4.9102,-4.9182,-4.9238,-4.9227,-4.9259,-4.9256,-4.9263,-4.9073,-4.9044,-4.9267,-4.9267,-4.9267,-4.9267,-4.9267,-4.9267,-4.8476,-4.8598,-4.8605,-4.8746,-4.8776,-4.8874,-4.8911,-4.8959,-4.8999,-4.9116,-4.9184,-4.9203,-4.9245,-4.9327,-4.9401,-4.9407,-4.9439,-4.9477,-4.9478,-4.9301,-4.9276,-4.9253,-4.9226,-4.9483,-4.9484,-4.9661,-4.9663,-4.9664]}]]